shoulder
new_line
new_line
first
second
third
Al di la della Luna; Beyond the Moon; Astrophotography; Astrofotografia; Danilo Pivato
 
 
         
         
2012
Orbital Elements

Epoch 2012 Sept. 30.0 TT = JDT 2456200.5
T 2012 Oct. 1.96457 TT                                                             MPC
q   1.4149815            (2000.0)                         P                     Q
n   0.14295243     Peri.   13.94935       +0.98244003     -0.18515528
a   3.6224997      Node   356.46877     +0.11412511     +0.69387994
e   0.6093909      Incl.       21.92922     +0.14760437     +0.69587941
P   6.89
Return in the future: 2026 ?
 
         
         
2012.10.05
2012.10.19
2012.10.20
2012.10.20 - Infrared
2012.12.03
         
       
2012.12.05
       
         
         
         

 

       
 
Since: 01/01/2004
 
           
Since: 01/11/2010